Regional Weather Roundup
Issued by NWS

Home | Current Version | Previous Version | Graphics & Text | Print | Product List | Glossary On
Versions: 1 2 3 4 5 6 7 8 9 10 11 12 13 14 15 16 17 18 19 20 21 22 23 24 25 26 27 28 29 30 31 32 33 34 35 36 37 38 39 40 41 42 43 44 45 46 47 48 49 50
000
ASUS43 KMPX 241501
RWRMN
WEATHER ROUNDUP FOR MINNESOTA
NATIONAL WEATHER SERVICE TWIN CITIES/CHANHASSEN MN
1000 AM CDT SUN MAY 24 2015


NOTE: "FAIR" INDICATES FEW OR NO CLOUDS BELOW 12,000 FEET WITH NO
SIGNIFICANT WEATHER AND/OR OBSTRUCTIONS TO VISIBILITY. N/A MEANS
CURRENT SKY AND/OR WEATHER CONDITIONS ARE NOT AVAILABLE.

MNZ060>063-068>070-241600-
   Twin Cities Metro

CITY           SKY/WX    TMP DP  RH WIND       PRES   REMARKS
TWIN CITIES    LGT RAIN  63  54  72 E9        30.03F
ST PAUL        LGT RAIN  63  54  72 E5        30.04F
CRYSTAL        LGT RAIN  64  53  67 SE6       30.02F
BLAINE         LGT RAIN  64  54  68 E6        30.04F
LAKEVILLE      LGT RAIN  61  55  82 E7        30.03F
EDEN PRAIRIE   LGT RAIN  63  54  72 E7        30.01F
SOUTH ST PAUL  DRIZZLE   64  53  67 E5        30.03F
LAKE ELMO      DRIZZLE   63  54  72 E5        30.06F
$$
MNZ001>005-007-008-013>017-022>024-027-028-241600-
   Northwest Minnesota

CITY           SKY/WX    TMP DP  RH WIND       PRES   REMARKS
BEMIDJI        PTSUNNY   66  46  48 E6        30.08F
HALLOCK        SUNNY     68  50  52 S5        30.06S
ROSEAU         SUNNY     70  52  52 W3        30.07S
WARROAD        SUNNY     70  52  52 W5        30.07S
THIEF RVR FALL MOSUNNY   66  46  48 CALM      30.08S
CROOKSTON      MOSUNNY   68  48  49 CALM      30.07F
FOSSTON        PTSUNNY   68  52  56 CALM      30.08F
DETROIT LAKES  CLOUDY    63  46  55 SE7       30.07S
MOORHEAD       CLOUDY    64  48  55 NE8       30.05S
PARK RAPIDS    LGT RAIN  63  48  58 E9        30.08S
MAHNOMEN       FAIR      66  46  47 E9        30.06F
$$
MNZ006-009>011-018-025>026-241600-
   North Central Minnesota

CITY           SKY/WX    TMP DP  RH WIND       PRES   REMARKS
BAUDETTE       SUNNY     69  46  43 W5        30.07S
FLAG ISLAND    SUNNY     57  50  77 SE7       30.05S
INTL FALLS     SUNNY     71  47  42 W3        30.07F
WASKISH        MOSUNNY   64  50  59 CALM      30.09S
BIG FORK       MOSUNNY   70  45  40 CALM      30.09F
LONGVILLE      CLOUDY    63  46  55 CALM      30.09S
GRAND RAPIDS   PTSUNNY   66  45  45 SE6       30.10S
CRANE LAKE     SUNNY     66  45  45 CALM      30.10S
ORR            SUNNY     66  39  37 CALM      30.07F
COOK           SUNNY     66  43  42 CALM      30.10F
WALKER         FAIR      62  48  60 CALM      30.09F
$$
MNZ012-019>021-037-241600-
   Northeast Minnesota

CITY           SKY/WX    TMP DP  RH WIND       PRES   REMARKS
DULUTH         PTSUNNY   66  46  48 VRB3      30.10F
ELY            SUNNY     70  43  37 W3        30.09F
HIBBING        MOSUNNY   69  42  37 VRB3      30.09F
EVELETH        MOSUNNY   68  41  37 NE6       30.10F
DULUTH HARBOR  PTSUNNY   55  48  76 NE3       30.10F
TWO HARBORS    MOSUNNY   73  52  46 S7        30.08S
GRAND MARAIS     N/A     51  40  65 W8        30.07F
G MARAIS ARPRT MOSUNNY   70  39  32 CALM      30.10F
$$
MNZ029>031-032-039>041-046>048-054>057-064-241600-
   West Central Minnesota

CITY           SKY/WX    TMP DP  RH WIND       PRES   REMARKS
FERGUS FALLS   CLOUDY    63  48  59 E8        30.03S
WHEATON        CLOUDY    61  48  63 E9        30.03S
MORRIS         DRIZZLE   59  54  82 E6        30.01S
ALEXANDRIA     CLOUDY    62  49  62 E10       30.03F
ELBOW LAKE     CLOUDY    61  49  66 E9        30.02F
WADENA         CLOUDY    59  48  67 NE6       30.05F
GLENWOOD       CLOUDY    63  50  63 E9        30.03S
APPLETON       DRIZZLE   61  54  77 E6        30.00S
BENSON         LGT RAIN  61  52  72 SE6       30.01S
ORTONVILLE     LGT RAIN  61  52  72 E5        30.01S
MADISON        LGT RAIN  59  54  82 NE6       30.00S
WILLMAR        LGT RAIN  63  54  72 E9        30.03R
$$
MNZ033>034-036-042>043-049>051-058-059-241600-
   Central Minnesota

CITY           SKY/WX    TMP DP  RH WIND       PRES   REMARKS
ST CLOUD       CLOUDY    60  52  74 E7        30.03F
SAUK CENTRE    FAIR      61  50  66 E10       30.03F
PAYNESVILLE    LGT RAIN  58  51  78 NE7       30.04S
AITKIN         CLOUDY    61  48  63 E7        30.07S
PINE RIVER     CLOUDY    61  48  63 E5        30.11F
BRAINERD       CLOUDY    62  48  60 E5        30.07F
STAPLES        CLOUDY    61  48  63 E5        30.06S
LONG PRAIRIE   PTSUNNY   61  48  63 NE10      30.04F
LITTLE FALLS   CLOUDY    63  46  55 E3        30.04F
LITCHFIELD     DRIZZLE   61  57  88 E5        30.03S
BUFFALO        RAIN      60  53  78 CALM      30.04S
MAPLE LAKE     CLOUDY    61  55  82 E3        30.04F
$$
MNZ037-044-045-052-053-241600-
   East Central Minnesota

CITY           SKY/WX    TMP DP  RH WIND       PRES   REMARKS
PRINCETON      CLOUDY    61  54  77 NE5       30.05F
MORA           CLOUDY    61  46  59 E5        30.07F
CAMBRIDGE      CLOUDY    64  50  59 CALM      30.03F
RUSH CITY      CLOUDY    61  53  74 CALM      30.06F
MOOSE LAKE     CLOUDY    61  46  59 NE3       30.07F
HINCKLEY       CLOUDY    61  54  77 NE5       30.07F
CLOQUET        CLOUDY    63  46  55 E3        30.10S
MCGREGOR       CLOUDY    59  50  72 CALM      30.09F
$$
MNZ071>073-080-081-089-090-097-098-241600-
   Southwest Minnesota

CITY           SKY/WX    TMP DP  RH WIND       PRES   REMARKS
MONTEVIDEO     RAIN      61  54  77 SE8       30.01S
GRANITE FALLS  DRIZZLE   61  54  76 NE6       30.01S
CANBY          LGT RAIN  59  55  88 NE5       30.00S
MARSHALL       CLOUDY    61  54  77 SE9       29.97F
REDWOOD FALLS  CLOUDY    60  56  86 VRB5      29.99S
OLIVIA         DRIZZLE   59  52  77 E5        30.00S
PIPESTONE      CLOUDY    59  55  88 E12       29.96F
WINDOM         LGT RAIN  61  57  88 E9        29.97F
WORTHINGTON    CLOUDY    59  54  82 E12       29.96F
JACKSON        CLOUDY    61  59  94 SE15      29.97F FOG
TRACY          DRIZZLE   61  58  90 SE8       29.98F
SLAYTON        LGT RAIN  58  58  97 E10       29.98F
$$
MNZ065>067-074>077-082>085-091>093-241600-
   South Central Minnesota

CITY           SKY/WX    TMP DP  RH WIND       PRES   REMARKS
MANKATO        CLOUDY    63  55  77 SE10      30.00F
NEW ULM        CLOUDY    61  55  82 SE7       30.00S
ST JAMES       LGT RAIN  63  59  88 E12       29.99F
FAIRMONT       CLOUDY    61  54  77 E15       29.97F
GLENCOE        DRIZZLE   63  57  82 E6        30.01F
FARIBAULT      DRIZZLE   63  55  77 E7        30.02S
OWATONNA       RAIN      63  55  77 SE15      30.02S
WASECA         DRIZZLE   63  55  77 SE17      30.02S
ALBERT LEA     RAIN      59  57  94 SE13      30.02S
$$
MNZ078>079-086>088-094>096-241600-
   Southeast Minnesota

CITY           SKY/WX    TMP DP  RH WIND       PRES   REMARKS
ROCHESTER      LGT RAIN  59  56  89 SE16      30.07F
RED WING       LGT RAIN  64  52  63 SE10      30.05S
STANTON        LGT RAIN  64  54  70 E8        30.02F
DODGE CENTER   LGT RAIN  61  55  82 SE14      30.04F
WINONA         RAIN      61  55  82 SE7       30.09F
AUSTIN         LGT RAIN  59  55  88 SE10      30.04S
PRESTON        LGT RAIN  57  54  89 SE10      30.07F
$$
ABBREVIATIONS USED IN REMARKS
   TC - TEMPERATURES IN CELSIUS
  WCI - WIND CHILL INDEX
   HX - HEAT INDEX
  VSB - VISIBILITY
$$


USA.gov is the U.S. government's official web portal to all federal, state and local government web resources and services.